Wheeler AAF, HI

1:35 AM HST on March 28, 2017 (GMT -1000)
Wheeler Army Air Field

Weather History for PHHI - March, 2014

Change the Weather History Date:

Monday, March 3, 2014

  Actual Average Record
Temperature  
Mean Temperature 67 °F -  
Max Temperature 73 °F 74 °F 79 °F (2008)
Min Temperature 61 °F 61 °F 57 °F (1999)
Cooling Degree Days 2    
Growing Degree Days 17 (Base 50)    
Moisture  
Dew Point 58 °F    
Average Humidity 74    
Maximum Humidity 90    
Minimum Humidity 49    
Precipitation  
Precipitation 0.00 in - - ()
Sea Level Pressure  
Sea Level Pressure 29.88 in    
Wind  
Wind Speed 5 mph (NW)    
Max Wind Speed 12 mph    
Max Gust Speed -    
Visibility 10 miles    
Events      
Averages and records for this station are not official NWS values.
T = Trace of Precipitation, MM = Missing Value Source: NWS Daily Summary

Daily Weather History Graph

Daily Weather History Graph

Search for Another Location

Airport or City:

Trip Planner

Search our weather history database for the weather conditions in past years. The results will help you decide how hot, cold, wet, or windy it might be!

Date:

Astronomy

Mar. 03, 2014 Rise Set
Actual Time 6:50 AM HST 6:37 PM HST
Civil Twilight 6:28 AM HST 6:59 PM HST
Nautical Twilight 6:02 AM HST 7:25 PM HST
Astronomical Twilight 5:37 AM HST 7:51 PM HST
Moon 8:31 AM HST (3/3) 9:23 PM HST (3/3)
Length of Visible Light 12h 30m
Length of Day
11h 46m
Waxing Crescent, 9% of the Moon is Illuminated
Mar 3
Waxing Crescent
Mar 8
First Quarter
Mar 16
Full
Mar 23
Last Quarter
Mar 30
New

Hourly Weather History & Observations

Time (HST) Temp. Dew Point Humidity Pressure Visibility Wind Dir Wind Speed Gust Speed Precip Events Conditions
12:58 AM 64.2 °F 61.3 °F 90% 29.88 in 10.0 mi NW 5.8 mph - N/A   Overcast
1:58 AM 64.0 °F 60.6 °F 89% 29.87 in 10.0 mi NNW 5.8 mph - N/A   Scattered Clouds
2:58 AM 64.6 °F 58.5 °F 80% 29.85 in 10.0 mi NW 4.6 mph - N/A   Partly Cloudy
3:58 AM 64.9 °F 57.9 °F 78% 29.83 in 10.0 mi NNW 3.5 mph - N/A   Partly Cloudy
4:58 AM 64.0 °F 58.5 °F 82% 29.83 in 10.0 mi NNE 3.5 mph - N/A   Partly Cloudy
5:58 AM 61.9 °F 58.3 °F 88% 29.85 in 10.0 mi Variable 3.5 mph - N/A   Mostly Cloudy
6:58 AM 64.4 °F 58.3 °F 80% 29.88 in 10.0 mi WNW 6.9 mph - N/A   Partly Cloudy
7:58 AM 65.8 °F 58.6 °F 78% 29.88 in 10.0 mi NW 6.9 mph - N/A   Partly Cloudy
8:58 AM 66.6 °F 59.0 °F 77% 29.90 in 10.0 mi WSW 3.5 mph - N/A   Clear
9:58 AM 68.2 °F 58.6 °F 71% 29.92 in 10.0 mi West 8.1 mph - N/A   Scattered Clouds
10:58 AM 68.9 °F 56.8 °F 65% 29.90 in 10.0 mi Variable 4.6 mph - N/A   Mostly Cloudy
11:58 AM 70.7 °F 55.8 °F 59% 29.89 in 10.0 mi NNW 8.1 mph - N/A   Scattered Clouds
12:58 PM 72.5 °F 56.1 °F 56% 29.88 in 10.0 mi Variable 4.6 mph - N/A   Clear
1:58 PM 73.2 °F 52.9 °F 49% 29.85 in 10.0 mi Variable 2.3 mph - N/A   Partly Cloudy
2:58 PM 72.1 °F 55.8 °F 56% 29.84 in 10.0 mi WSW 8.1 mph - N/A   Clear
3:58 PM 72.0 °F 55.9 °F 57% 29.84 in 10.0 mi Variable 6.9 mph - N/A   Scattered Clouds
4:58 PM 70.0 °F 55.6 °F 60% 29.86 in 10.0 mi West 5.8 mph - N/A   Partly Cloudy
5:58 PM 68.2 °F 55.8 °F 64% 29.88 in 10.0 mi West 5.8 mph - N/A   Clear
6:41 PM 68.0 °F 59.0 °F 73% 29.90 in 10.0 mi NNW 11.5 mph - N/A   Light Drizzle
6:50 PM 66.2 °F 60.8 °F 83% 29.90 in 10.0 mi NNW 10.4 mph - N/A   Overcast
6:58 PM 66.4 °F 60.1 °F 80% 29.89 in 10.0 mi NNW 8.1 mph - 0.00 in   Overcast
7:58 PM 65.8 °F 59.0 °F 79% 29.91 in 10.0 mi NNW 3.5 mph - N/A   Clear
8:58 PM 64.6 °F 58.6 °F 81% 29.93 in 10.0 mi Variable 2.3 mph - N/A   Partly Cloudy
9:58 PM 65.1 °F 56.7 °F 74% 29.95 in 10.0 mi NW 4.6 mph - N/A   Clear
10:58 PM 62.4 °F 56.8 °F 82% 29.95 in 10.0 mi South 2.3 mph - N/A   Clear
11:58 PM 61.0 °F 55.8 °F 83% 29.94 in 10.0 mi WSW 3.5 mph - N/A   Clear